^^
Station Historical Data
 
Daily Summary for March 20, 2019 Units:  English    Metric   Both
« Previous Day
Next Day »
Daily Weekly Monthly Yearly Custom
  Current: High: Low: Average:
Temperature: 61.2 °F TemperatureF °F 47.1 °F 59 °F
Dew Point: 47.7 °F DewpointF °F 32.9 °F 41.2 °F
Humidity: 61% Humidity% 25% 55%
Wind Speed: 0.0mph WindSpeedMPHmph 0.0mph 2.7mph
Wind Gust: 0.0mph WindSpeedGustMPHmph - -
WindCalm - - ESE
Pressure: 30.09 in PressureIn in 30.08 in -
Precipitation: 0.00 in      
Historical Graphs
 
 
Tabular Data for March 20, 2019
Time Temperature Dew Point Pressure Wind Wind Speed Wind Gust Humidity Rainfall Rate (Hourly) Conditions
TemperatureF °F DewpointF °F PressureIn in Calm     Humidity% HourlyPrecipIn in Conditions
00:04 54.3 °F 43.5 °F 30.20 in East 0.9 mph 1.0 mph 67% 0.00 in
00:09 54.1 °F 43.9 °F 30.19 in East 0.9 mph 1.0 mph 68% 0.00 in
00:14 54.0 °F 43.7 °F 30.19 in Calm     68% 0.00 in
00:18 53.8 °F 43.5 °F 30.20 in East 0.9 mph 2.0 mph 68% 0.00 in
00:21 53.8 °F 43.5 °F 30.20 in East 2.0 mph 2.0 mph 68% 0.00 in
00:29 53.6 °F 43.7 °F 30.19 in East 0.9 mph 2.0 mph 69% 0.00 in
00:34 53.4 °F 43.5 °F 30.19 in East 0.9 mph 1.0 mph 69% 0.00 in
00:39 53.4 °F 43.5 °F 30.19 in East 0.9 mph 1.0 mph 69% 0.00 in
00:44 53.2 °F 43.3 °F 30.20 in East 0.9 mph 2.0 mph 69% 0.00 in
00:49 53.2 °F 43.7 °F 30.20 in East 0.9 mph 2.0 mph 70% 0.00 in
00:54 53.2 °F 43.7 °F 30.19 in East 0.9 mph 1.0 mph 70% 0.00 in
00:59 53.2 °F 44.1 °F 30.19 in Calm   1.0 mph 71% 0.00 in
01:04 53.1 °F 43.9 °F 30.19 in East 2.0 mph 2.0 mph 71% 0.00 in
01:09 53.1 °F 44.2 °F 30.19 in East 0.9 mph 1.0 mph 72% 0.00 in
01:14 52.9 °F 44.1 °F 30.19 in East 0.9 mph 1.0 mph 72% 0.00 in
01:17 52.9 °F 44.1 °F 30.19 in East 0.9 mph 1.0 mph 72% 0.00 in
01:24 52.5 °F 44.1 °F 30.19 in East 0.9 mph 1.0 mph 73% 0.00 in
01:29 52.3 °F 43.9 °F 30.19 in East 0.9 mph 1.0 mph 73% 0.00 in
01:34 52.2 °F 43.7 °F 30.19 in East 0.9 mph 2.0 mph 73% 0.00 in
01:39 52.2 °F 44.1 °F 30.19 in Calm   1.0 mph 74% 0.00 in
01:44 52.0 °F 43.9 °F 30.19 in East 0.9 mph 1.0 mph 74% 0.00 in
01:49 52.0 °F 43.9 °F 30.19 in East 0.9 mph 1.0 mph 74% 0.00 in
01:54 51.8 °F 44.1 °F 30.19 in East 0.9 mph 1.0 mph 75% 0.00 in
01:59 51.6 °F 43.9 °F 30.19 in East 2.0 mph 2.0 mph 75% 0.00 in
02:04 51.4 °F 43.7 °F 30.18 in East 0.9 mph 1.0 mph 75% 0.00 in
02:09 51.4 °F 44.1 °F 30.18 in Calm   1.0 mph 76% 0.00 in
02:13 51.3 °F 43.9 °F 30.19 in Calm   1.0 mph 76% 0.00 in
02:18 51.3 °F 43.9 °F 30.18 in East 0.9 mph 2.0 mph 76% 0.00 in
02:24 51.1 °F 44.1 °F 30.18 in Calm   1.0 mph 77% 0.00 in
02:29 51.1 °F 44.1 °F 30.18 in East 0.9 mph 3.0 mph 77% 0.00 in
02:34 51.1 °F 44.1 °F 30.18 in East 0.9 mph 2.0 mph 77% 0.00 in
02:39 50.9 °F 43.9 °F 30.17 in East 0.9 mph 2.0 mph 77% 0.00 in
02:44 50.9 °F 44.2 °F 30.17 in Calm   1.0 mph 78% 0.00 in
02:49 50.7 °F 44.1 °F 30.17 in East 2.0 mph 3.0 mph 78% 0.00 in
02:54 50.7 °F 44.1 °F 30.17 in East 0.9 mph 2.0 mph 78% 0.00 in
02:59 50.5 °F 43.9 °F 30.16 in Calm   3.0 mph 78% 0.00 in
03:04 50.4 °F 44.1 °F 30.16 in East 2.0 mph 3.0 mph 79% 0.00 in
03:07 50.4 °F 44.1 °F 30.16 in East 2.0 mph 2.0 mph 79% 0.00 in
03:14 50.4 °F 44.1 °F 30.16 in Calm   2.0 mph 79% 0.00 in
03:19 50.4 °F 44.4 °F 30.16 in East 0.9 mph 2.0 mph 80% 0.00 in
03:24 50.4 °F 44.4 °F 30.16 in East 0.9 mph 2.0 mph 80% 0.00 in
03:29 50.2 °F 44.2 °F 30.15 in East 2.0 mph 2.0 mph 80% 0.00 in
03:34 50.4 °F 44.4 °F 30.15 in East 0.9 mph 3.0 mph 80% 0.00 in
03:39 50.4 °F 44.4 °F 30.15 in East 0.9 mph 4.0 mph 80% 0.00 in
03:44 50.2 °F 44.2 °F 30.15 in East 2.0 mph 2.0 mph 80% 0.00 in
03:49 50.2 °F 44.2 °F 30.15 in East 2.0 mph 2.0 mph 80% 0.00 in
03:54 50.2 °F 44.2 °F 30.15 in East 2.9 mph 3.0 mph 80% 0.00 in
03:59 50.2 °F 43.9 °F 30.15 in East 0.9 mph 1.0 mph 79% 0.00 in
04:04 50.4 °F 44.1 °F 30.15 in East 0.9 mph 3.0 mph 79% 0.00 in
04:09 50.4 °F 44.1 °F 30.15 in East 0.9 mph 3.0 mph 79% 0.00 in
04:11 50.2 °F 43.9 °F 30.14 in East 2.0 mph 3.0 mph 79% 0.00 in
04:19 50.2 °F 43.9 °F 30.15 in East 2.9 mph 4.0 mph 79% 0.00 in
04:24 50.2 °F 43.9 °F 30.15 in East 2.9 mph 4.0 mph 79% 0.00 in
04:29 50.2 °F 43.9 °F 30.15 in East 2.9 mph 3.0 mph 79% 0.00 in
04:34 50.2 °F 43.5 °F 30.15 in East 2.0 mph 4.0 mph 78% 0.00 in
04:39 50.2 °F 43.5 °F 30.15 in East 4.0 mph 5.0 mph 78% 0.00 in
04:44 50.2 °F 43.5 °F 30.15 in East 0.9 mph 3.0 mph 78% 0.00 in
04:49 50.0 °F 43.3 °F 30.15 in East 2.0 mph 3.0 mph 78% 0.00 in
04:54 50.2 °F 43.5 °F 30.15 in East 0.9 mph 5.0 mph 78% 0.00 in
04:59 50.2 °F 43.5 °F 30.16 in East 4.0 mph 4.0 mph 78% 0.00 in
05:04 50.0 °F 43.2 °F 30.16 in East 2.9 mph 4.0 mph 77% 0.00 in
05:09 49.8 °F 43.2 °F 30.16 in East 0.9 mph 2.0 mph 78% 0.00 in
05:14 49.6 °F 43.0 °F 30.16 in Calm   1.0 mph 78% 0.00 in
05:17 49.6 °F 43.0 °F 30.16 in East 0.9 mph 1.0 mph 78% 0.00 in
05:24 49.5 °F 42.8 °F 30.17 in East 0.9 mph 2.0 mph 78% 0.00 in
05:29 48.9 °F 42.6 °F 30.17 in East 0.9 mph 1.0 mph 79% 0.00 in
05:34 48.9 °F 43.0 °F 30.17 in East 0.9 mph 2.0 mph 80% 0.00 in
05:39 48.7 °F 42.8 °F 30.18 in Calm   3.0 mph 80% 0.00 in
05:44 48.6 °F 42.6 °F 30.18 in East 0.9 mph 2.0 mph 80% 0.00 in
05:49 48.4 °F 42.4 °F 30.18 in East 0.9 mph 2.0 mph 80% 0.00 in
05:54 48.2 °F 42.6 °F 30.18 in East 0.9 mph 1.0 mph 81% 0.00 in
05:59 48.0 °F 42.4 °F 30.18 in Calm   1.0 mph 81% 0.00 in
06:04 47.8 °F 42.6 °F 30.18 in East 0.9 mph 1.0 mph 82% 0.00 in
06:05 47.7 °F 42.4 °F 30.19 in East 0.9 mph 1.0 mph 82% 0.00 in
06:14 47.5 °F 42.6 °F 30.19 in East 0.9 mph 2.0 mph 83% 0.00 in
06:19 47.3 °F 42.4 °F 30.19 in East 0.9 mph 2.0 mph 83% 0.00 in
06:24 47.1 °F 42.3 °F 30.19 in East 2.0 mph 3.0 mph 83% 0.00 in
06:29 47.1 °F 42.3 °F 30.19 in East 0.9 mph 2.0 mph 83% 0.00 in
06:34 47.1 °F 42.3 °F 30.20 in East 2.9 mph 4.0 mph 83% 0.00 in
06:39 47.1 °F 42.3 °F 30.20 in East 2.0 mph 2.0 mph 83% 0.00 in
06:44 47.1 °F 41.9 °F 30.20 in East 0.9 mph 2.0 mph 82% 0.00 in
06:49 47.1 °F 41.9 °F 30.20 in East 0.9 mph 3.0 mph 82% 0.00 in
06:54 47.1 °F 41.9 °F 30.20 in East 2.9 mph 3.0 mph 82% 0.00 in
06:59 47.1 °F 41.9 °F 30.20 in East 2.0 mph 3.0 mph 82% 0.00 in
07:03 47.5 °F 42.3 °F 30.20 in East 2.0 mph 4.0 mph 82% 0.00 in
07:05 47.5 °F 41.9 °F 30.20 in East 2.0 mph 2.0 mph 81% 0.00 in
07:14 48.0 °F 42.1 °F 30.20 in East 2.0 mph 2.0 mph 80% 0.00 in
07:19 48.4 °F 42.4 °F 30.20 in East 4.0 mph 4.0 mph 80% 0.00 in
07:24 48.6 °F 42.3 °F 30.20 in East 2.0 mph 5.0 mph 79% 0.00 in
07:29 48.9 °F 42.4 °F 30.21 in East 2.9 mph 5.0 mph 78% 0.00 in
07:34 49.3 °F 42.4 °F 30.21 in East 2.0 mph 5.0 mph 77% 0.00 in
07:39 49.6 °F 42.4 °F 30.21 in East 0.9 mph 2.0 mph 76% 0.00 in
07:44 50.0 °F 42.1 °F 30.21 in East 4.0 mph 6.0 mph 74% 0.00 in
07:49 50.4 °F 42.4 °F 30.21 in East 4.0 mph 6.0 mph 74% 0.00 in
07:54 50.7 °F 42.4 °F 30.22 in East 4.0 mph 8.0 mph 73% 0.00 in
07:59 51.1 °F 42.4 °F 30.21 in East 4.9 mph 6.0 mph 72% 0.00 in
08:04 51.4 °F 42.4 °F 30.22 in East 2.0 mph 6.0 mph 71% 0.00 in
08:07 51.4 °F 41.9 °F 30.22 in East 4.0 mph 7.0 mph 70% 0.00 in
08:14 52.0 °F 42.1 °F 30.22 in East 4.9 mph 5.0 mph 69% 0.00 in
08:24 52.5 °F 41.2 °F 30.22 in East 4.0 mph 9.0 mph 65% 0.00 in
08:29 52.9 °F 41.4 °F 30.22 in East 6.9 mph 7.0 mph 65% 0.00 in
08:34 53.2 °F 41.4 °F 30.22 in East 8.9 mph 9.0 mph 64% 0.00 in
08:39 53.8 °F 40.6 °F 30.22 in East 4.0 mph 8.0 mph 61% 0.00 in
08:44 54.3 °F 39.9 °F 30.22 in East 4.0 mph 9.0 mph 58% 0.00 in
08:49 55.0 °F 39.6 °F 30.22 in East 4.0 mph 7.0 mph 56% 0.00 in
08:54 55.6 °F 38.7 °F 30.22 in East 6.0 mph 7.0 mph 53% 0.00 in
08:59 55.9 °F 38.5 °F 30.23 in East 6.0 mph 11.0 mph 52% 0.00 in
09:00 55.9 °F 38.5 °F 30.22 in East 6.0 mph 11.0 mph 52% 0.00 in
09:09 56.8 °F 37.9 °F 30.23 in East 4.9 mph 9.0 mph 49% 0.00 in
09:14 57.0 °F 38.1 °F 30.22 in East 6.9 mph 9.0 mph 49% 0.00 in
09:19 57.4 °F 37.4 °F 30.22 in East 4.9 mph 9.0 mph 47% 0.00 in
09:24 57.7 °F 37.6 °F 30.22 in East 4.0 mph 12.0 mph 47% 0.00 in
09:29 57.9 °F 37.8 °F 30.22 in East 12.1 mph 12.0 mph 47% 0.00 in
09:34 58.5 °F 36.7 °F 30.22 in East 6.9 mph 12.0 mph 44% 0.00 in
09:39 59.0 °F 37.8 °F 30.22 in East 4.0 mph 10.0 mph 45% 0.00 in
09:44 59.5 °F 37.6 °F 30.22 in East 8.1 mph 8.0 mph 44% 0.00 in
09:47 59.7 °F 37.8 °F 30.22 in East 2.9 mph 7.0 mph 44% 0.00 in
09:51 60.1 °F 37.6 °F 30.22 in East 4.9 mph 9.0 mph 43% 0.00 in
09:59 60.6 °F 37.9 °F 30.22 in East 8.9 mph 9.0 mph 43% 0.00 in
10:04 60.6 °F 36.9 °F 30.22 in East 4.0 mph 10.0 mph 41% 0.00 in
10:09 61.3 °F 37.4 °F 30.22 in East 4.0 mph 11.0 mph 41% 0.00 in
10:14 61.7 °F 37.2 °F 30.22 in East 10.1 mph 10.0 mph 40% 0.00 in
10:19 62.1 °F 36.9 °F 30.22 in East 6.0 mph 8.0 mph 39% 0.00 in
10:24 62.4 °F 37.8 °F 30.22 in East 8.1 mph 8.0 mph 40% 0.00 in
10:29 62.8 °F 37.4 °F 30.22 in East 10.1 mph 12.0 mph 39% 0.00 in
10:34 63.0 °F 37.6 °F 30.22 in East 4.9 mph 9.0 mph 39% 0.00 in
10:37 63.5 °F 38.1 °F 30.22 in East 2.9 mph 8.0 mph 39% 0.00 in
10:44 63.9 °F 37.0 °F 30.22 in East 6.0 mph 6.0 mph 37% 0.00 in
10:49 63.7 °F 37.6 °F 30.22 in East 6.9 mph 8.0 mph 38% 0.00 in
10:54 64.2 °F 37.4 °F 30.22 in East 6.0 mph 8.0 mph 37% 0.00 in
10:59 64.4 °F 37.6 °F 30.22 in East 4.9 mph 8.0 mph 37% 0.00 in
11:04 64.9 °F 38.1 °F 30.21 in East 4.0 mph 6.0 mph 37% 0.00 in
11:09 64.9 °F 37.4 °F 30.21 in East 6.0 mph 10.0 mph 36% 0.00 in
11:14 65.5 °F 37.8 °F 30.21 in East 6.0 mph 7.0 mph 36% 0.00 in
11:19 65.7 °F 37.2 °F 30.21 in East 4.0 mph 9.0 mph 35% 0.00 in
11:24 65.7 °F 37.2 °F 30.21 in East 4.9 mph 9.0 mph 35% 0.00 in
11:29 65.5 °F 37.8 °F 30.20 in East 6.0 mph 7.0 mph 36% 0.00 in
11:34 65.8 °F 38.1 °F 30.20 in East 8.1 mph 10.0 mph 36% 0.00 in
11:38 66.0 °F 39.7 °F 30.20 in East 6.0 mph 6.0 mph 38% 0.00 in
11:41 66.0 °F 39.7 °F 30.20 in East 2.0 mph 2.0 mph 38% 0.00 in
11:49 66.7 °F 39.0 °F 30.20 in East 6.9 mph 8.0 mph 36% 0.00 in
11:54 66.7 °F 39.0 °F 30.19 in East 2.9 mph 7.0 mph 36% 0.00 in
11:59 67.5 °F 39.6 °F 30.19 in East 2.0 mph 11.0 mph 36% 0.00 in
12:04 67.5 °F 38.1 °F 30.19 in East 4.9 mph 11.0 mph 34% 0.00 in
12:09 67.3 °F 38.7 °F 30.19 in East 4.0 mph 7.0 mph 35% 0.00 in
12:14 67.5 °F 39.6 °F 30.19 in East 2.9 mph 6.0 mph 36% 0.00 in
12:19 68.0 °F 39.4 °F 30.18 in East 4.0 mph 4.0 mph 35% 0.00 in
12:24 68.2 °F 37.9 °F 30.18 in East 2.0 mph 6.0 mph 33% 0.00 in
12:29 68.2 °F 37.2 °F 30.17 in East 2.9 mph 5.0 mph 32% 0.00 in
12:34 68.4 °F 38.1 °F 30.17 in East 2.9 mph 7.0 mph 33% 0.00 in
12:39 68.5 °F 39.7 °F 30.17 in East 2.9 mph 7.0 mph 35% 0.00 in
12:40 68.5 °F 37.6 °F 30.17 in East 6.0 mph 6.0 mph 32% 0.00 in
12:46 68.4 °F 37.4 °F 30.16 in East 4.9 mph 6.0 mph 32% 0.00 in
12:54 68.7 °F 38.5 °F 30.16 in East 6.9 mph 8.0 mph 33% 0.00 in
12:59 68.5 °F 38.3 °F 30.16 in East 6.9 mph 7.0 mph 33% 0.00 in
13:04 68.5 °F 37.6 °F 30.16 in East 2.9 mph 7.0 mph 32% 0.00 in
13:09 68.9 °F 37.8 °F 30.16 in East 4.0 mph 4.0 mph 32% 0.00 in
13:14 69.3 °F 36.5 °F 30.16 in East 10.1 mph 12.0 mph 30% 0.00 in
13:19 68.5 °F 36.0 °F 30.15 in East 0.9 mph 7.0 mph 30% 0.00 in
13:24 69.1 °F 38.8 °F 30.15 in East 0.9 mph 4.0 mph 33% 0.00 in
13:29 69.3 °F 36.5 °F 30.15 in East 0.9 mph 5.0 mph 30% 0.00 in
13:34 69.4 °F 37.4 °F 30.14 in East 2.0 mph 3.0 mph 31% 0.00 in
13:35 69.8 °F 38.7 °F 30.14 in East 2.0 mph 2.0 mph 32% 0.00 in
13:44 69.6 °F 36.0 °F 30.14 in East 4.0 mph 9.0 mph 29% 0.00 in
13:49 69.6 °F 35.1 °F 30.13 in East 2.9 mph 4.0 mph 28% 0.00 in
13:54 69.6 °F 36.0 °F 30.13 in East 2.0 mph 3.0 mph 29% 0.00 in
13:59 69.8 °F 37.0 °F 30.13 in East 2.0 mph 2.0 mph 30% 0.00 in
14:04 70.3 °F 37.4 °F 30.12 in East 2.0 mph 4.0 mph 30% 0.00 in
14:09 70.7 °F 36.0 °F 30.12 in East 0.9 mph 2.0 mph 28% 0.00 in
14:14 71.1 °F 36.3 °F 30.12 in East 2.9 mph 3.0 mph 28% 0.00 in
14:19 70.7 °F 33.1 °F 30.12 in East 4.0 mph 6.0 mph 25% 0.00 in
14:24 70.3 °F 35.6 °F 30.11 in East 2.9 mph 3.0 mph 28% 0.00 in
14:29 70.3 °F 33.8 °F 30.11 in Calm   5.0 mph 26% 0.00 in
14:34 70.3 °F 33.8 °F 30.11 in East 2.0 mph 4.0 mph 26% 0.00 in
14:44 70.5 °F 34.9 °F 30.11 in East 4.0 mph 7.0 mph 27% 0.00 in
14:49 70.3 °F 33.8 °F 30.11 in East 4.0 mph 4.0 mph 26% 0.00 in
14:54 70.3 °F 34.7 °F 30.10 in East 2.0 mph 5.0 mph 27% 0.00 in
14:59 70.9 °F 35.2 °F 30.11 in East 2.0 mph 3.0 mph 27% 0.00 in
15:04 70.9 °F 33.3 °F 30.11 in East 2.9 mph 6.0 mph 25% 0.00 in
15:09 70.9 °F 34.3 °F 30.10 in East 0.9 mph 8.0 mph 26% 0.00 in
15:14 70.3 °F 32.9 °F 30.10 in East 0.9 mph 4.0 mph 25% 0.00 in
15:19 70.9 °F 34.3 °F 30.10 in East 2.9 mph 3.0 mph 26% 0.00 in
15:24 71.1 °F 33.4 °F 30.10 in East 0.9 mph 2.0 mph 25% 0.00 in
15:29 70.5 °F 34.9 °F 30.09 in East 2.0 mph 2.0 mph 27% 0.00 in
15:34 71.1 °F 37.2 °F 30.09 in East 4.0 mph 5.0 mph 29% 0.00 in
15:44 70.9 °F 36.1 °F 30.09 in East 0.9 mph 4.0 mph 28% 0.00 in
15:49 71.1 °F 36.3 °F 30.09 in East 4.0 mph 6.0 mph 28% 0.00 in
15:53 70.5 °F 37.6 °F 30.09 in East 6.0 mph 7.0 mph 30% 0.00 in
15:59 70.3 °F 37.4 °F 30.09 in East 2.0 mph 3.0 mph 30% 0.00 in
16:04 70.5 °F 36.7 °F 30.09 in East 6.0 mph 8.0 mph 29% 0.00 in
16:08 70.5 °F 34.0 °F 30.09 in East 0.9 mph 3.0 mph 26% 0.00 in
16:14 70.3 °F 34.7 °F 30.09 in East 4.9 mph 7.0 mph 27% 0.00 in
16:19 70.5 °F 35.8 °F 30.09 in East 0.9 mph 3.0 mph 28% 0.00 in
16:24 70.2 °F 44.1 °F 30.09 in East 6.9 mph 9.0 mph 39% 0.00 in
16:29 69.4 °F 42.8 °F 30.09 in East 2.0 mph 5.0 mph 38% 0.00 in
16:34 69.4 °F 40.6 °F 30.09 in East 2.0 mph 9.0 mph 35% 0.00 in
16:39 68.7 °F 42.1 °F 30.09 in East 4.0 mph 11.0 mph 38% 0.00 in
16:43 69.1 °F 44.4 °F 30.09 in East 2.0 mph 4.0 mph 41% 0.00 in
16:49 69.3 °F 43.2 °F 30.09 in East 2.0 mph 2.0 mph 39% 0.00 in
16:54 69.1 °F 43.7 °F 30.09 in East 4.9 mph 7.0 mph 40% 0.00 in
16:59 68.5 °F 42.6 °F 30.09 in East 2.9 mph 6.0 mph 39% 0.00 in
17:04 68.5 °F 43.9 °F 30.09 in East 2.9 mph 7.0 mph 41% 0.00 in
17:09 68.4 °F 43.2 °F 30.09 in East 2.9 mph 6.0 mph 40% 0.00 in
17:14 68.4 °F 43.2 °F 30.09 in East 0.9 mph 3.0 mph 40% 0.00 in
17:19 68.2 °F 44.2 °F 30.09 in East 2.9 mph 4.0 mph 42% 0.00 in
17:24 67.8 °F 42.6 °F 30.08 in ESE 2.0 mph 9.0 mph 40% 0.00 in
17:29 67.8 °F 42.6 °F 30.08 in ESE 2.9 mph 4.0 mph 40% 0.00 in
17:34 67.8 °F 43.3 °F 30.08 in ESE 2.9 mph 5.0 mph 41% 0.00 in
17:39 67.6 °F 44.4 °F 30.08 in ESE 2.0 mph 9.0 mph 43% 0.00 in
17:44 67.5 °F 45.3 °F 30.08 in ESE 0.9 mph 6.0 mph 45% 0.00 in
17:49 66.9 °F 45.5 °F 30.08 in ESE 2.0 mph 6.0 mph 46% 0.00 in
17:51 66.9 °F 45.0 °F 30.08 in ESE 2.0 mph 3.0 mph 45% 0.00 in
17:59 66.6 °F 45.1 °F 30.08 in ESE 4.0 mph 6.0 mph 46% 0.00 in
18:04 66.4 °F 46.0 °F 30.08 in ESE 2.9 mph 4.0 mph 48% 0.00 in
18:09 66.2 °F 45.9 °F 30.08 in ESE 2.0 mph 4.0 mph 48% 0.00 in
18:14 66.0 °F 44.6 °F 30.08 in ESE 2.0 mph 8.0 mph 46% 0.00 in
18:19 65.8 °F 46.8 °F 30.08 in ESE 2.0 mph 4.0 mph 50% 0.00 in
18:24 65.3 °F 46.2 °F 30.08 in ESE 2.0 mph 5.0 mph 50% 0.00 in
18:29 64.8 °F 46.2 °F 30.08 in ESE 0.9 mph 2.0 mph 51% 0.00 in
18:34 64.2 °F 46.2 °F 30.08 in ESE 0.9 mph 3.0 mph 52% 0.00 in
18:39 63.9 °F 46.9 °F 30.08 in ESE 2.9 mph 4.0 mph 54% 0.00 in
18:44 63.5 °F 46.6 °F 30.08 in Calm   3.0 mph 54% 0.00 in
18:49 63.3 °F 47.3 °F 30.08 in ESE 0.9 mph 3.0 mph 56% 0.00 in
18:54 63.0 °F 45.5 °F 30.08 in ESE 2.0 mph 7.0 mph 53% 0.00 in
18:59 63.0 °F 46.6 °F 30.08 in ESE 0.9 mph 1.0 mph 55% 0.00 in
19:01 62.8 °F 46.4 °F 30.08 in Calm   1.0 mph 55% 0.00 in
19:09 62.6 °F 46.8 °F 30.08 in ESE 2.9 mph 3.0 mph 56% 0.00 in
19:14 62.4 °F 46.6 °F 30.08 in ESE 0.9 mph 2.0 mph 56% 0.00 in
19:19 62.2 °F 46.8 °F 30.08 in ESE 0.9 mph 2.0 mph 57% 0.00 in
19:24 62.2 °F 47.3 °F 30.08 in ESE 2.0 mph 2.0 mph 58% 0.00 in
19:29 62.1 °F 47.5 °F 30.08 in ESE 2.0 mph 2.0 mph 59% 0.00 in
19:34 62.1 °F 47.5 °F 30.08 in Calm   2.0 mph 59% 0.00 in
19:39 61.9 °F 47.5 °F 30.09 in Calm   1.0 mph 59% 0.00 in
19:44 61.9 °F 47.8 °F 30.09 in Calm   2.0 mph 60% 0.00 in
19:49 61.3 °F 47.3 °F 30.09 in ESE 2.9 mph 3.0 mph 60% 0.00 in
19:54 61.2 °F 47.7 °F 30.09 in Calm     61% 0.00 in
19:59 61.0 °F 47.8 °F 30.09 in Calm   1.0 mph 62% 0.00 in
20:04 61.2 °F 47.7 °F 30.09 in ESE 0.9 mph 1.0 mph 61% 0.00 in
20:09 61.2 °F 47.7 °F 30.09 in Calm     61% 0.00 in
Panama City, Florida, USA
Compliments of Weather Underground - 3.75 mb